Regional Weather Roundup
Issued by NWS Midland/Odessa, TX

Home | Current Version | Previous Version | Text Only | Print | Product List | Glossary On
Versions: 1 2 3 4 5 6 7 8 9 10 11 12 13 14 15 16 17 18 19 20 21 22 23 24 25 26 27 28 29 30 31 32 33 34 35 36 37 38 39 40 41 42 43 44 45 46 47 48 49 50
000
ASUS44 KMAF 021810
RWRMAF
MIDLAND AREA WEATHER ROUNDUP
NATIONAL WEATHER SERVICE MIDLAND TX
100 PM CDT SUN AUG 02 2015

...IN SOUTHWEST TEXAS AND SOUTHEAST NEW MEXICO...

CITY           SKY/WX    TMP DP  RH WIND       PRES   REMARKS
ALPINE         SUNNY     86  57  36 NW5       30.17F
ANDREWS        FAIR      94  57  28 SW6       30.02F
ARTESIA        SUNNY     93  59  31 CALM      30.02F
BIG SPRING     SUNNY     90  58  33 SE6       30.02F
CARLSBAD       SUNNY     95  58  28 VRB3G16   29.99F
DRYDEN           N/A     95  61  32 S8        29.97F
FORT STOCKTON  SUNNY     94  58  29 E6        30.01F
GUAD PASS      SUNNY     85  60  42 SW17G25   30.19F
HOBBS          SUNNY     90  63  40 S10       30.05F
MARFA          SUNNY     84  57  39 SE3       30.16F
MIDLAND AIRPK  SUNNY     95  55  26 S12G17    30.01F
MIDLAND INTL   SUNNY     94  58  29 SE9       30.00F
ODESSA         SUNNY     94  56  27 MISG      30.02F
PECOS          SUNNY     95  57  27 NE3       29.97F
PRESIDIO       FAIR      92  58  32 E3        30.00F
SEMINOLE       SUNNY     94  56  28 SW9       30.04S
SNYDER         PTSUNNY   87  63  44 S6        30.02S
WINK           SUNNY     96  58  27 NW6       29.97F
$$
...OTHER STATIONS IN TEXAS...

CITY           SKY/WX    TMP DP  RH WIND       PRES   REMARKS
ABILENE        SUNNY     92  59  33 VRB7      29.99F
AMARILLO       MOSUNNY   82  64  54 SW12      30.04S
AUSTIN         MOSUNNY   93  62  35 SE6       29.94F
BROWNSVILLE    LGT RAIN  78  74  87 E13       29.92S
CORPUS CHRISTI MOSUNNY   94  69  44 N5        29.91F
DALLAS FTW     MOSUNNY   93  55  27 S9        29.95F
DEL RIO        SUNNY     95  64  35 SE10      29.92F
EL PASO        MOSUNNY   89  54  30 CALM      30.06F
HOUSTON INT    MOSUNNY   96  64  34 E7        29.92F
LUBBOCK        MOSUNNY   88  64  44 SW13      30.03F
SAN ANGELO     SUNNY     94  61  33 VRB6      29.98F
SAN ANTONIO    MOSUNNY   93  63  36 SE12      29.96F
WACO           SUNNY     95  56  26 SW3       29.95F
WICHITA FALLS  NOT AVBL
$$
...OTHER LOCATIONS IN NEW MEXICO...

CITY           SKY/WX    TMP DP  RH WIND       PRES   REMARKS
ALAMAGORDO     MOSUNNY   86  54  32 S8        30.09F
ALBUQUERQUE    MOSUNNY   80  54  40 W6        30.18F
CANNON AFB     PTSUNNY   85  62  44 SW12G17   30.07F
CLOVIS         SUNNY     88  61  40 S13G20    30.08F
HOLLOMAN AFB   SUNNY     89  55  31 VRB5      30.06F
ROSWELL        SUNNY     91  58  32 CALM      30.02F
RUIDOSO          N/A    N/A N/A N/A MISG        N/A
SANTA FE       MOSUNNY   79  51  37 N9        30.22F
TRUTH OR CONSE SUNNY     87  56  34 S7        30.11F
TUCUMCARI      SUNNY     85  60  42 W8        30.04F
$$


USA.gov is the U.S. government's official web portal to all federal, state and local government web resources and services.